Stündliche Wetter Abrykosove

Heute, 24 Juni, Donnerstag

Zeit Temperatur Niederschläge Wind Luftdruck Luftfeuchtigkeit
00:00 +23°C° 0 mm 2 m/S 757 mmHg 86%
01:00 +23°C° 0 mm 1 m/S 757 mmHg 85%
02:00 +21°C° 0 mm 0 m/S 756 mmHg 85%
03:00 +21°C° 0 mm 0 m/S 756 mmHg 84%
04:00 +21°C° 0 mm 0 m/S 756 mmHg 83%
05:00 +21°C° 0 mm 0 m/S 756 mmHg 83%
06:00 +25°C° 0 mm 1 m/S 757 mmHg 78%
07:00 +26°C° 0 mm 1 m/S 757 mmHg 73%
08:00 +27°C° 0 mm 1 m/S 757 mmHg 67%
09:00 +29°C° 0 mm 1 m/S 757 mmHg 62%
10:00 +30°C° 0 mm 1 m/S 757 mmHg 57%
11:00 +32°C° 0 mm 1 m/S 757 mmHg 52%
12:00 +32°C° 0 mm 1 m/S 757 mmHg 49%
13:00 +34°C° 0 mm 2 m/S 756 mmHg 46%
14:00 +35°C° 0 mm 2 m/S 756 mmHg 43%
15:00 +35°C° 0 mm 3 m/S 756 mmHg 44%
16:00 +35°C° 0 mm 3 m/S 756 mmHg 45%
17:00 +35°C° 0 mm 4 m/S 756 mmHg 46%
18:00 +33°C° 0.4 mm 3 m/S 755 mmHg 52%
19:00 +30°C° 0.4 mm 3 m/S 755 mmHg 59%
20:00 +28°C° 0.4 mm 3 m/S 755 mmHg 65%
21:00 +28°C° 0.2 mm 3 m/S 755 mmHg 69%
22:00 +27°C° 0.2 mm 3 m/S 755 mmHg 72%
23:00 +26°C° 0.2 mm 3 m/S 755 mmHg 76%

Morgen, 25 Juni, Freitag

Zeit Temperatur Niederschläge Wind Luftdruck Luftfeuchtigkeit
00:00 +26°C° 0.1 mm 3 m/S 755 mmHg 77%
01:00 +26°C° 0.1 mm 3 m/S 755 mmHg 78%
02:00 +25°C° 0.1 mm 3 m/S 755 mmHg 80%
03:00 +25°C° 0.3 mm 3 m/S 755 mmHg 83%
04:00 +24°C° 0.3 mm 3 m/S 755 mmHg 86%
05:00 +23°C° 0.3 mm 4 m/S 755 mmHg 89%
06:00 +25°C° 0 mm 4 m/S 755 mmHg 85%
07:00 +26°C° 0 mm 4 m/S 755 mmHg 80%
08:00 +27°C° 0 mm 4 m/S 756 mmHg 76%
09:00 +28°C° 0 mm 3 m/S 756 mmHg 71%
10:00 +28°C° 0 mm 3 m/S 756 mmHg 66%
11:00 +29°C° 0 mm 2 m/S 756 mmHg 61%
12:00 +30°C° 0 mm 2 m/S 756 mmHg 59%
13:00 +30°C° 0 mm 2 m/S 756 mmHg 57%
14:00 +30°C° 0 mm 2 m/S 756 mmHg 55%
15:00 +30°C° 0 mm 2 m/S 756 mmHg 55%
16:00 +30°C° 0 mm 2 m/S 755 mmHg 54%
17:00 +31°C° 0 mm 2 m/S 755 mmHg 54%
18:00 +29°C° 0 mm 2 m/S 755 mmHg 58%
19:00 +28°C° 0 mm 2 m/S 755 mmHg 63%
20:00 +26°C° 0 mm 3 m/S 755 mmHg 67%
21:00 +26°C° 0 mm 3 m/S 755 mmHg 68%
22:00 +26°C° 0 mm 3 m/S 754 mmHg 69%
23:00 +25°C° 0 mm 3 m/S 754 mmHg 70%

übermorgen, 26 Juni, Samstag

Zeit Temperatur Niederschläge Wind Luftdruck Luftfeuchtigkeit
00:00 +25°C° 0 mm 3 m/S 754 mmHg 74%
01:00 +25°C° 0 mm 3 m/S 754 mmHg 77%
02:00 +25°C° 0 mm 3 m/S 754 mmHg 80%
03:00 +23°C° 0 mm 4 m/S 754 mmHg 80%
04:00 +23°C° 0 mm 4 m/S 754 mmHg 81%
05:00 +23°C° 0 mm 4 m/S 754 mmHg 81%
06:00 +26°C° 0.2 mm 4 m/S 754 mmHg 76%
07:00 +27°C° 0.2 mm 3 m/S 754 mmHg 71%
08:00 +28°C° 0.2 mm 3 m/S 754 mmHg 66%
09:00 +29°C° 0 mm 3 m/S 754 mmHg 62%
10:00 +31°C° 0 mm 3 m/S 754 mmHg 58%
11:00 +32°C° 0 mm 2 m/S 754 mmHg 54%
12:00 +34°C° 0.1 mm 2 m/S 754 mmHg 51%
13:00 +34°C° 0.1 mm 2 m/S 754 mmHg 48%
14:00 +35°C° 0.1 mm 2 m/S 754 mmHg 45%
15:00 +34°C° 0 mm 2 m/S 753 mmHg 49%
16:00 +32°C° 0 mm 2 m/S 753 mmHg 52%
17:00 +31°C° 0 mm 3 m/S 753 mmHg 55%
18:00 +30°C° 0 mm 3 m/S 753 mmHg 60%
19:00 +29°C° 0 mm 3 m/S 753 mmHg 64%
20:00 +28°C° 0 mm 4 m/S 753 mmHg 69%
21:00 +26°C° 0.4 mm 5 m/S 753 mmHg 74%
22:00 +25°C° 0.4 mm 5 m/S 753 mmHg 80%
23:00 +22°C° 0.4 mm 6 m/S 754 mmHg 85%

27 Juni, Sonntag

Zeit Temperatur Niederschläge Wind Luftdruck Luftfeuchtigkeit
00:00 +22°C° 0.2 mm 5 m/S 754 mmHg 87%
01:00 +22°C° 0.2 mm 4 m/S 754 mmHg 88%
02:00 +21°C° 0.2 mm 3 m/S 754 mmHg 90%
03:00 +21°C° 0 mm 4 m/S 754 mmHg 89%
04:00 +21°C° 0 mm 5 m/S 754 mmHg 89%
05:00 +21°C° 0 mm 6 m/S 754 mmHg 89%
06:00 +22°C° 0 mm 5 m/S 754 mmHg 83%
07:00 +23°C° 0 mm 5 m/S 754 mmHg 78%
08:00 +26°C° 0 mm 5 m/S 754 mmHg 73%
09:00 +27°C° 0 mm 5 m/S 754 mmHg 68%
10:00 +28°C° 0 mm 5 m/S 754 mmHg 63%
11:00 +30°C° 0 mm 5 m/S 755 mmHg 58%
12:00 +30°C° 0 mm 5 m/S 754 mmHg 56%
13:00 +32°C° 0 mm 5 m/S 754 mmHg 54%
14:00 +33°C° 0 mm 5 m/S 754 mmHg 52%
15:00 +32°C° 0 mm 5 m/S 754 mmHg 53%
16:00 +32°C° 0 mm 4 m/S 754 mmHg 54%
17:00 +32°C° 0 mm 4 m/S 754 mmHg 55%
18:00 +30°C° 0 mm 5 m/S 754 mmHg 61%
19:00 +28°C° 0 mm 5 m/S 754 mmHg 67%
20:00 +27°C° 0 mm 6 m/S 754 mmHg 73%
21:00 +26°C° 0 mm 6 m/S 755 mmHg 76%
22:00 +24°C° 0 mm 6 m/S 755 mmHg 78%
23:00 +24°C° 0 mm 6 m/S 755 mmHg 80%

28 Juni, Montag

Zeit Temperatur Niederschläge Wind Luftdruck Luftfeuchtigkeit
00:00 +23°C° 0 mm 6 m/S 755 mmHg 82%
01:00 +23°C° 0 mm 6 m/S 755 mmHg 85%
02:00 +22°C° 0 mm 6 m/S 755 mmHg 87%
03:00 +22°C° 0 mm 6 m/S 755 mmHg 88%
04:00 +22°C° 0 mm 6 m/S 756 mmHg 90%
05:00 +21°C° 0 mm 6 m/S 756 mmHg 91%
06:00 +23°C° 0 mm 6 m/S 756 mmHg 85%
07:00 +24°C° 0 mm 6 m/S 756 mmHg 80%
08:00 +26°C° 0 mm 6 m/S 756 mmHg 75%
09:00 +27°C° 0 mm 6 m/S 757 mmHg 71%
10:00 +28°C° 0 mm 6 m/S 757 mmHg 68%
11:00 +28°C° 0 mm 6 m/S 757 mmHg 64%
12:00 +28°C° 0 mm 6 m/S 757 mmHg 62%
13:00 +29°C° 0 mm 5 m/S 757 mmHg 61%
14:00 +29°C° 0 mm 5 m/S 757 mmHg 60%
15:00 +29°C° 0 mm 5 m/S 757 mmHg 58%
16:00 +29°C° 0 mm 5 m/S 757 mmHg 57%
17:00 +29°C° 0 mm 5 m/S 757 mmHg 55%
18:00 +27°C° 0 mm 5 m/S 757 mmHg 60%
19:00 +26°C° 0 mm 4 m/S 757 mmHg 65%
20:00 +25°C° 0 mm 4 m/S 757 mmHg 70%
21:00 +23°C° 0 mm 4 m/S 757 mmHg 72%
22:00 +24°C° 0 mm 3 m/S 757 mmHg 74%
23:00 +22°C° 0 mm 3 m/S 757 mmHg 77%

29 Juni, Dienstag

Zeit Temperatur Niederschläge Wind Luftdruck Luftfeuchtigkeit
00:00 +22°C° 0 mm 3 m/S 757 mmHg 78%
01:00 +22°C° 0 mm 3 m/S 757 mmHg 79%
02:00 +21°C° 0 mm 3 m/S 757 mmHg 80%
03:00 +21°C° 0 mm 4 m/S 757 mmHg 80%
04:00 +21°C° 0 mm 4 m/S 758 mmHg 81%
05:00 +21°C° 0 mm 4 m/S 758 mmHg 81%
06:00 +22°C° 0 mm 4 m/S 758 mmHg 75%
07:00 +23°C° 0 mm 5 m/S 758 mmHg 69%
08:00 +26°C° 0 mm 5 m/S 758 mmHg 63%
09:00 +27°C° 0 mm 4 m/S 758 mmHg 58%
10:00 +28°C° 0 mm 4 m/S 758 mmHg 52%
11:00 +29°C° 0 mm 4 m/S 758 mmHg 46%
12:00 +30°C° 0 mm 4 m/S 758 mmHg 44%
13:00 +30°C° 0 mm 3 m/S 758 mmHg 42%
14:00 +30°C° 0 mm 3 m/S 757 mmHg 40%
15:00 +30°C° 0 mm 3 m/S 757 mmHg 42%
16:00 +30°C° 0 mm 3 m/S 757 mmHg 43%
17:00 +30°C° 0 mm 3 m/S 757 mmHg 44%
18:00 +29°C° 0 mm 3 m/S 757 mmHg 49%
19:00 +27°C° 0 mm 3 m/S 758 mmHg 54%
20:00 +26°C° 0 mm 2 m/S 758 mmHg 59%
21:00 +26°C° 0 mm 2 m/S 758 mmHg 59%
22:00 +25°C° 0 mm 2 m/S 758 mmHg 60%
23:00 +25°C° 0 mm 2 m/S 758 mmHg 61%
Mehr zeigen

Wir brauchen deine Erlaubnis

Meteoprog und unser Service Anbieter werden persönliche Daten aufbewahren, so wie Cookies, Geräte Bezeichnung oder ähnliche Technologien von deinem Gerät und Prozess, so wie Persönliche Daten Inhalte und Werbungen, genauso wie social Media und den Verkehr zu analysieren.

  • Aufbewahrung und/oder Zugang zu deiner Geräte Informationen.

    Cookies, Geräte Bezeichnung oder andere Informationen, können aufbewahrt oder Zugang zu deinem Gerät erhalten, für den Grund, der oben angegeben wird.

  • Personalisierte Werbung und Inhalte, Messungen, Einblick in das Publikum und Produkt Entwicklung.

    Werbungen und Inhalte können personalisiert werden, basierend auf ein Profil. Mehr Daten können besser personalisierte Werbungen und Inhalte hinzufügen. Werbung und Inhalte können gezeigt und gemessen werden. Einblicke über das Publikum, welche die Werbung gesehen haben und den Inhalt, können abgeleitet werden. So wie Daten können genutzt werden, um es zu verbessern oder die Benutzer Erfahrung zu verbessern das System und die Software.

Wenn du “Ich stimme zu” klickst, erlaubst du uns, die Cookies zu benutzen die Geräte Bezeichnung, den Web oder ähnliche Technologien zu benutzen. Deine Settings, können in deinem Gerät bei deinem Browser geändert werden.

Für den bestimmten Zweck, berechtigten Interessen beruhen darauf, mehr als auf den Inhalt. Du kannst mehr darüber in unseren Privaten und Cookie Politik lesen.